Weather History for Spearfish, SD

Change the Weather History Date:

Monday, March 4, 2013

  Actual Average (KEFC) Record (KEFC)
Temperature  
Mean Temperature 22 °F -  
Max Temperature 30 °F 41 °F 67 °F (1950)
Min Temperature 15 °F 15 °F -30 °F (1960)
Degree Days  
Heating Degree Days 42    
Moisture  
Dew Point 13 °F    
Average Humidity 72    
Maximum Humidity 93    
Minimum Humidity 55    
Precipitation  
Precipitation 8.39 in - - ()
Sea Level Pressure  
Sea Level Pressure 29.90 in    
Wind  
Wind Speed 22 mph (WNW)    
Max Wind Speed 33 mph    
Max Gust Speed 51 mph    
Visibility 5 miles    
Events Rain , Snow    
Averages and records for this station are not official NWS values.
T = Trace of Precipitation, MM = Missing Value Source: NWS Daily Summary

Daily Weather History Graph

Daily Weather History Graph

Search for Another Location

Airport:

Trip Planner

Search our weather history database for the weather conditions in past years. The results will help you decide how hot, cold, wet, or windy it might be!

Date:

Astronomy

Mar. 04, 2013 Rise Set
Actual Time 7:26 AM CST 6:47 PM CST
Civil Twilight 6:57 AM CST 7:16 PM CST
Nautical Twilight 6:24 AM CST 7:50 PM CST
Astronomical Twilight 5:50 AM CST 8:24 PM CST
Moon 1:48 AM CST (3/4) 11:21 AM CST (3/4)
Length of Visible Light 12h 18m
Length of Day
11h 20m
Waning Gibbous, 52% of the Moon is Illuminated
Mar 4
Waning Gibbous
Mar 4
Last Quarter
Mar 11
New
Mar 19
First Quarter
Mar 27
Full

Hourly Weather History & Observations

Time (CST) Temp. Windchill Dew Point Humidity Pressure Visibility Wind Dir Wind Speed Gust Speed Precip Events Conditions
12:15 AM 30.2 °F 17.8 °F 24.8 °F 80% 29.73 in 6.0 mi WNW 19.6 mph 26.5 mph 0.04 in Rain Light Freezing Rain
12:35 AM 28.4 °F 15.4 °F 24.8 °F 86% 29.73 in 7.0 mi West 19.6 mph 25.3 mph 0.19 in Rain Light Freezing Rain
12:55 AM 28.4 °F 16.2 °F 23.0 °F 80% 29.72 in 10.0 mi WNW 17.3 mph 25.3 mph 0.20 in Rain Light Freezing Rain
1:55 AM 30.2 °F 17.8 °F 23.0 °F 75% 29.73 in 10.0 mi West 19.6 mph 33.4 mph N/A   Overcast
2:15 AM 30.2 °F 18.1 °F 21.2 °F 69% 29.73 in 10.0 mi West 18.4 mph 33.4 mph N/A   Overcast
2:35 AM 28.4 °F 15.1 °F 21.2 °F 74% 29.74 in 10.0 mi West 20.7 mph 27.6 mph N/A   Partly Cloudy
2:55 AM 28.4 °F 17.0 °F 19.4 °F 69% 29.74 in 10.0 mi West 15.0 mph - N/A   Partly Cloudy
3:15 AM 28.4 °F 19.1 °F 19.4 °F 69% 29.73 in 10.0 mi West 10.4 mph - N/A   Partly Cloudy
3:35 AM 28.4 °F 15.4 °F 17.6 °F 64% 29.73 in 10.0 mi West 19.6 mph 25.3 mph N/A   Clear
3:55 AM 28.4 °F 16.2 °F 17.6 °F 64% 29.71 in 10.0 mi West 17.3 mph 28.8 mph N/A   Clear
4:15 AM 28.4 °F 16.2 °F 15.8 °F 59% 29.71 in 10.0 mi West 17.3 mph 21.9 mph N/A   Clear
4:35 AM 28.4 °F 15.8 °F 15.8 °F 59% 29.70 in 10.0 mi West 18.4 mph 26.5 mph N/A   Clear
4:55 AM 28.4 °F 15.1 °F 14.0 °F 55% 29.70 in 10.0 mi WNW 20.7 mph 33.4 mph N/A   Clear
5:15 AM 26.6 °F 12.7 °F 14.0 °F 59% 29.71 in 10.0 mi West 20.7 mph 28.8 mph N/A   Clear
5:35 AM 26.6 °F 10.8 °F 14.0 °F 59% 29.71 in 9.0 mi West 27.6 mph 40.3 mph N/A   Clear
5:55 AM 24.8 °F 9.0 °F 14.0 °F 64% 29.73 in 9.0 mi West 25.3 mph 36.8 mph N/A   Clear
6:15 AM 24.8 °F 9.6 °F 12.2 °F 59% 29.74 in 10.0 mi West 23.0 mph 31.1 mph N/A   Clear
6:55 AM 23.0 °F 6.6 °F 10.4 °F 59% 29.74 in 9.0 mi West 25.3 mph 39.1 mph N/A   Partly Cloudy
7:15 AM 23.0 °F 5.7 °F 10.4 °F 59% 29.75 in 5.0 mi West 28.8 mph 38.0 mph N/A   Mostly Cloudy
7:35 AM 23.0 °F 6.3 °F 10.4 °F 59% 29.76 in 8.0 mi West 26.5 mph 36.8 mph N/A Rain Light Freezing Rain
7:55 AM 23.0 °F 6.3 °F 10.4 °F 59% 29.77 in 10.0 mi West 26.5 mph 33.4 mph N/A   Clear
8:15 AM 23.0 °F 8.3 °F 10.4 °F 59% 29.77 in 10.0 mi West 19.6 mph 36.8 mph N/A   Scattered Clouds
8:35 AM 23.0 °F 7.2 °F 10.4 °F 59% 29.79 in 10.0 mi West 23.0 mph 38.0 mph N/A   Scattered Clouds
8:55 AM 23.0 °F 8.3 °F 10.4 °F 59% 29.80 in 9.0 mi West 19.6 mph 40.3 mph N/A Rain Light Freezing Rain
9:15 AM 23.0 °F 7.6 °F 10.4 °F 59% 29.79 in 10.0 mi West 21.9 mph 32.2 mph N/A   Mostly Cloudy
9:35 AM 23.0 °F 6.6 °F 10.4 °F 59% 29.80 in 10.0 mi West 25.3 mph 34.5 mph N/A   Mostly Cloudy
9:55 AM 23.0 °F 6.6 °F 10.4 °F 59% 29.80 in 5.0 mi WNW 25.3 mph 28.8 mph N/A Rain Light Freezing Rain
10:15 AM 21.2 °F 5.2 °F 12.2 °F 68% 29.82 in 1.2 mi WNW 21.9 mph 34.5 mph 0.04 in Snow Light Snow
10:35 AM 19.4 °F 1.8 °F 14.0 °F 80% 29.83 in 0.5 mi WNW 25.3 mph 35.7 mph 0.37 in Snow Snow
10:55 AM 17.6 °F -0.3 °F 12.2 °F 79% 29.84 in 0.2 mi WNW 24.2 mph 38.0 mph 1.04 in Snow Heavy Snow
11:15 AM 17.6 °F -0.6 °F 14.0 °F 86% 29.84 in 0.2 mi WNW 25.3 mph 38.0 mph 0.31 in Snow Heavy Snow
11:35 AM 19.4 °F 1.1 °F 10.4 °F 68% 29.83 in 1.0 mi West 27.6 mph 42.6 mph 0.47 in Snow Light Snow
11:55 AM 19.4 °F -0.3 °F 12.2 °F 74% 29.84 in 0.8 mi West 33.4 mph 40.3 mph 0.69 in Rain Light Freezing Rain
12:15 PM 19.4 °F 0.5 °F 10.4 °F 68% 29.83 in 0.5 mi WNW 29.9 mph 44.9 mph 0.04 in Rain Light Freezing Rain
12:35 PM 19.4 °F -0.0 °F 12.2 °F 74% 29.85 in 0.8 mi WNW 32.2 mph 41.4 mph 0.16 in Rain Light Freezing Rain
12:55 PM 19.4 °F 1.1 °F 12.2 °F 74% 29.85 in 0.2 mi WNW 27.6 mph 50.6 mph 0.32 in Snow Heavy Snow
1:15 PM 17.6 °F -0.6 °F 14.0 °F 86% 29.87 in 0.2 mi WNW 25.3 mph 44.9 mph 0.41 in Snow Heavy Snow
1:55 PM 17.6 °F -1.3 °F 12.2 °F 79% 29.90 in 0.5 mi NW 27.6 mph 42.6 mph 1.00 in Snow Snow
2:15 PM 17.6 °F -1.6 °F 10.4 °F 73% 29.91 in 0.5 mi WNW 28.8 mph 42.6 mph 0.12 in Snow Snow
2:35 PM 17.6 °F -1.9 °F 12.2 °F 79% 29.92 in 0.5 mi WNW 29.9 mph 42.6 mph 0.27 in Snow Snow
2:55 PM 17.6 °F -1.0 °F 12.2 °F 79% 29.93 in 0.8 mi WNW 26.5 mph 36.8 mph 0.48 in Snow Light Snow
3:15 PM 17.6 °F -1.0 °F 14.0 °F 86% 29.95 in 0.2 mi WNW 26.5 mph 35.7 mph 0.82 in Snow Heavy Snow
3:35 PM 17.6 °F -2.8 °F 12.2 °F 79% 29.96 in 0.5 mi WNW 33.4 mph 43.7 mph 1.23 in Rain Light Freezing Rain
3:55 PM 17.6 °F -1.9 °F 10.4 °F 73% 29.98 in 0.8 mi WNW 29.9 mph 42.6 mph 1.54 in Snow Light Snow
4:15 PM 17.6 °F -2.8 °F 10.4 °F 73% 30.00 in - WNW 33.4 mph 44.9 mph 0.23 in Snow Heavy Snow
4:35 PM 15.8 °F -3.4 °F 10.4 °F 79% 30.02 in - WNW 26.5 mph 50.6 mph 0.75 in Rain Light Freezing Rain
4:55 PM 17.6 °F 0.1 °F 10.4 °F 73% 30.04 in 1.5 mi West 23.0 mph 33.4 mph 0.85 in Snow Light Snow
5:15 PM 15.8 °F -3.7 °F 12.2 °F 86% 30.06 in 0.5 mi WNW 27.6 mph 38.0 mph 0.13 in Snow Snow
5:35 PM 15.8 °F -0.6 °F 12.2 °F 86% 30.06 in 0.8 mi WNW 18.4 mph 28.8 mph 0.33 in Snow Light Snow
5:55 PM 15.8 °F -3.1 °F 14.0 °F 93% 30.07 in 0.5 mi WNW 25.3 mph 33.4 mph 0.86 in Snow Snow
6:15 PM 17.6 °F -1.0 °F 12.2 °F 79% 30.08 in 1.5 mi WNW 26.5 mph 35.7 mph 0.11 in Snow Light Snow
6:55 PM 17.6 °F 0.1 °F 10.4 °F 73% 30.12 in 4.0 mi WNW 23.0 mph 36.8 mph 0.16 in Snow Light Snow
7:15 PM 17.6 °F -0.3 °F 10.4 °F 73% 30.13 in 4.0 mi WNW 24.2 mph 36.8 mph 0.02 in Snow Light Snow
7:35 PM 17.6 °F -0.6 °F 10.4 °F 73% 30.14 in 8.0 mi NW 25.3 mph 36.8 mph 0.04 in Snow Light Snow
7:55 PM 17.6 °F -1.0 °F 12.2 °F 79% 30.14 in 5.0 mi NW 26.5 mph 34.5 mph 0.11 in Snow Light Snow
8:15 PM 17.6 °F -1.3 °F 12.2 °F 79% 30.15 in 5.0 mi WNW 27.6 mph 36.8 mph 0.04 in Snow Light Snow
8:55 PM 15.8 °F -2.7 °F 10.4 °F 79% 30.17 in 5.0 mi NW 24.2 mph 39.1 mph 0.19 in Snow Light Snow
9:15 PM 17.6 °F -1.0 °F 10.4 °F 73% 30.18 in 3.0 mi WNW 26.5 mph 36.8 mph 0.04 in Snow Light Snow
9:35 PM 15.8 °F -2.7 °F 10.4 °F 79% 30.19 in 4.0 mi WNW 24.2 mph 31.1 mph 0.14 in Snow Light Snow
9:55 PM 15.8 °F -1.5 °F 10.4 °F 79% 30.19 in 4.0 mi WNW 20.7 mph 33.4 mph 0.24 in Snow Light Snow
10:35 PM 15.8 °F -3.4 °F 10.4 °F 79% 30.20 in 2.5 mi WNW 26.5 mph 36.8 mph 0.21 in Snow Light Snow
10:55 PM 15.8 °F -3.1 °F 10.4 °F 79% 30.20 in 5.0 mi WNW 25.3 mph 33.4 mph 0.27 in Snow Light Snow
11:15 PM 15.8 °F -2.3 °F 10.4 °F 79% 30.20 in 3.0 mi NW 23.0 mph 29.9 mph 0.08 in Snow Light Snow
11:35 PM 15.8 °F -1.9 °F 10.4 °F 79% 30.21 in 3.0 mi NW 21.9 mph 26.5 mph 0.24 in Snow Light Snow
11:55 PM 15.8 °F -1.1 °F 10.4 °F 79% 30.22 in 2.5 mi NW 19.6 mph 27.6 mph 0.44 in Snow Light Snow